Simultaneous Nadir Overpasses (SNOs) Predictions

Prediction of SNOs between GOES-15 and METOP-B Satellite Orbit:

Table of predicted SNOs for the next 14.0 days since TLE Epoch: 7/18/2025
Index Date Time (GOES-15) GOES-15 Lat,Lon METOP-B Lat,Lon Distance(km) Time Diff (sec)
1 07/19/2025 04:50:26 -0.09, 61.28 -0.50, 63.04 200.58 80
2 07/20/2025 17:12:07 0.04, 61.36 -0.62, 58.43 334.41 80
3 07/21/2025 16:48:50 0.08, 61.37 0.50, 63.40 230.86 80
4 07/23/2025 05:10:24 -0.03, 61.32 0.54, 58.81 285.88 80
5 07/24/2025 04:47:07 -0.07, 61.33 -0.59, 63.78 278.79 80
6 07/25/2025 17:08:49 0.02, 61.42 -0.47, 59.16 257.01 80
7 07/26/2025 16:45:32 0.06, 61.43 0.65, 64.13 308.14 80
8 07/28/2025 05:07:06 -0.00, 61.37 0.37, 59.54 207.99 80
9 07/29/2025 04:43:48 -0.04, 61.38 -0.76, 64.51 356.85 80
10 07/30/2025 17:05:30 -0.01, 61.48 -0.36, 59.90 179.21 80
11 07/31/2025 16:42:12 0.03, 61.49 0.77, 64.88 385.72 80
